Location: La Silve
(44.2414°N, 5.8889°E)
Time: 08:03:14
(UTC+00:00)

Cosmos 1470 Rocket - Pass Details

Date: 01 December 2020
Orbit: 604 x 633 km, 82.5° (Epoch: 25 January)

Event Time Altitude Azimuth Distance (km) Brightness Sun altitude
Rises 17:07:07 0° 354° (N) 2,872 6.8 -11.9°
Reaches altitude 10° 17:09:22 10° 357° (N) 1,963 6.0 -12.3°
Maximum altitude 17:13:41 64° 79° (E) 672 3.5 -13.0°
Drops below altitude 10° 17:17:57 10° 162° (SSE) 1,948 6.1 -13.8°
Sets 17:20:10 0° 165° (SSE) 2,849 7.0 -14.2°
